logo
Rechercher aéroport 
image banner adimage banner adimage banner ad
image banner ad

CL40 - Antelope Valley Service Center

Situé à Lancaster, United States

ICAO - CL40, IATA -

Données fournies par Airmate  

Information générale

Coordonnées: N34°38'53" W118°8'43"
Élévation : 2522 feet MSL.
Variation magnétique : 14° East
Voir autres Aéroports à California

Données opérationnelles

Special qualification required
Heure actuelle UTC:
Heure actuelle locale:
Météo à : KPMD - Palmdale Usaf Plant 42 ( 6 km )
METAR: KPMD 261553Z 00000KT 10SM CLR 27/09 A3006 RMK AO2 SLP148 T02670094 $
TAF: KPMD 261125Z 2612/2712 19008KT P6SM SKC FM261400 VRB03KT P6SM SKC FM261800 05006KT P6SM SKC FM270000 25008KT P6SM SKC FM270800 19008KT P6SM SKC
Voir NOTAMs / SUP AIP / TFR affectant cet aéroport [VIEW]
Fréquences de communication: [VIEW]

Pistes:

Coordonnées de l'aéroport

Adresse: Lancaster United States

Vue satellite de CL40